[[{"header":{"parameterUnit":"m.s-1","parameterCategory":1,"la1":30.2992,"la2":30.254,"lo1":-89.0895,"lo2":-89.0443,"dy":0.0025,"dx":0.0025,"nx":19,"ny":19,"refTime":"2026-03-11T21:00:00:Z","depth":0,"parameterNumber":2,"parameterNumberName":"U-component_of_WINDS"},"data":[0,0,0,-2.226,-2.2261,-2.2315,-2.2316,-2.2381,-2.2381,0,0,0,0,0,0,0,0,0,0,0,-2.2242,-2.2242,-2.226,-2.2261,-2.2315,-2.2316,-2.2381,-2.2381,0,0,0,0,0,0,0,0,0,0,0,-2.2242,-2.2242,-2.2243,-2.2261,-2.2315,-2.2316,-2.238,-2.2341,0,0,0,0,0,0,0,0,0,0,-2.2289,-2.2271,-2.2242,-2.2243,-2.2262,-2.2315,-2.2316,-2.2339,-2.2343,-2.2355,0,-2.2365,0,-2.2374,-2.2385,-2.2386,0,0,0,-2.2262,-2.2267,-2.2283,-2.2243,-2.2262,-2.2315,-2.2291,-2.2341,-2.2346,-2.236,-2.2366,-2.2368,-2.2375,-2.2386,-2.2386,-2.2448,-2.2448,0,0,-2.2259,-2.225,-2.228,-2.2287,-2.2279,-2.2289,-2.2293,-2.2344,-2.2349,-2.2366,-2.237,-2.2376,-2.2386,-2.2387,-2.2448,-2.2448,0,0,0,-2.225,-2.2248,-2.2264,-2.2284,-2.2294,-2.2291,-2.2295,-2.2347,-2.2353,-2.237,-2.2377,-2.2387,-2.2387,-2.2447,-2.2448,-2.245,0,0,0,-2.2248,-2.2243,-2.2262,-2.2257,-2.2293,-2.2321,-2.2296,-2.2349,-2.2355,-2.2377,-2.2387,-2.2388,-2.2447,-2.2448,-2.2449,-2.2452,0,0,0,-2.2239,-2.2242,-2.2249,-2.2257,-2.228,-2.2321,-2.2329,-2.2351,-2.2359,-2.2386,-2.2388,-2.2447,-2.2447,-2.2449,-2.2451,-2.2465,0,0,0,-2.2226,-2.225,-2.2249,-2.2278,-2.2279,-2.2322,-2.2329,-2.2362,-2.2384,-2.2387,-2.2447,-2.2448,-2.2449,-2.245,-2.2464,-2.2474,-2.2477,0,0,-2.2251,-2.2253,-2.2271,-2.2271,-2.2312,-2.2315,-2.2356,-2.2385,-2.2395,-2.243,-2.2431,-2.2449,-2.2451,-2.2464,-2.2503,-2.2505,0,0,0,-2.2276,-2.2288,-2.2301,-2.2323,-2.2346,-2.2366,-2.239,-2.2401,-2.2431,-2.2411,-2.2459,-2.246,-2.2469,-2.2473,-2.2476,-2.2483,-2.245,-2.245,-2.245,-2.2297,-2.231,-2.234,-2.2359,-2.238,-2.2405,-2.2423,-2.2442,-2.2448,-2.2459,-2.2469,-2.2491,-2.2496,-2.2498,-2.2505,-2.2476,-2.2476,-2.2476,-2.2477,-2.2333,-2.2353,-2.2362,-2.2394,-2.2407,-2.2434,-2.2459,-2.2463,-2.249,-2.2484,-2.2492,-2.2484,-2.2501,-2.2508,-2.2477,-2.2477,-2.2477,-2.2477,-2.2477,-2.2348,-2.2359,-2.2372,-2.2405,-2.2429,-2.2448,-2.2473,-2.2485,-2.2495,-2.2503,-2.2514,-2.2514,-2.2514,-2.2508,-2.2508,-2.2508,-2.2508,-2.2508,-2.2509,-2.2356,-2.2371,-2.2391,-2.2419,-2.2434,-2.2456,-2.2482,-2.2497,-2.2517,-2.2523,-2.2523,-2.2528,-2.2501,-2.2492,-2.251,-2.2509,-2.2509,-2.2509,-2.2509,-2.2386,-2.2381,-2.2412,-2.2427,-2.246,-2.2482,-2.2498,-2.2528,-2.2542,-2.2554,-2.2558,-2.2536,-2.2538,-2.2536,-2.253,-2.2556,-2.2556,-2.2556,-2.2556,-2.2396,-2.2399,-2.2433,-2.2457,-2.2482,-2.2499,-2.2532,-2.2553,-2.2573,-2.2583,-2.2581,-2.2574,-2.2572,-2.2575,-2.2572,-2.2566,-2.2601,-2.2601,-2.2601,-2.2415,-2.242,-2.2447,-2.2467,-2.2494,-2.2516,-2.2548,-2.2575,-2.2597,-2.2603,-2.259,-2.2588,-2.2577,-2.2573,-2.2576,-2.2572,-2.2561,0,0]},{"header":{"parameterUnit":"m.s-1","parameterCategory":1,"la1":30.2992,"la2":30.254,"lo1":-89.0895,"lo2":-89.0443,"dy":0.0025,"dx":0.0025,"nx":19,"ny":19,"refTime":"2026-03-11T21:00:00:Z","depth":0,"parameterNumber":3,"parameterNumberName":"V-component_of_WINDS"},"data":[0,0,0,5.745,5.7452,5.7522,5.7522,5.7616,5.7617,0,0,0,0,0,0,0,0,0,0,0,5.7434,5.7434,5.745,5.7452,5.7522,5.7522,5.7616,5.7617,0,0,0,0,0,0,0,0,0,0,0,5.7433,5.7434,5.7435,5.7452,5.7522,5.7522,5.7615,5.7561,0,0,0,0,0,0,0,0,0,0,5.7492,5.7481,5.7434,5.7435,5.7453,5.7521,5.7522,5.7558,5.7564,5.7587,0,5.7609,0,5.7615,5.7623,5.7624,0,0,0,5.7448,5.7476,5.7491,5.7435,5.7453,5.7521,5.7489,5.7561,5.7568,5.7595,5.7611,5.7614,5.7616,5.7624,5.7625,5.7774,5.7775,0,0,5.7444,5.7448,5.7487,5.7496,5.7487,5.7487,5.7491,5.7565,5.7582,5.7611,5.7616,5.7618,5.7625,5.7626,5.7773,5.7774,0,0,0,5.7436,5.7445,5.7459,5.7493,5.7505,5.7489,5.7494,5.7578,5.7583,5.7617,5.7619,5.7625,5.7627,5.7772,5.7773,5.7823,0,0,0,5.7433,5.744,5.7457,5.746,5.7504,5.7543,5.7506,5.7578,5.7586,5.7619,5.7625,5.7628,5.7771,5.7773,5.7819,5.7845,0,0,0,5.7428,5.7439,5.7451,5.746,5.749,5.7542,5.755,5.7579,5.7588,5.7624,5.7628,5.777,5.7772,5.7816,5.784,5.7889,0,0,0,5.7422,5.7491,5.7452,5.753,5.749,5.7572,5.7549,5.7609,5.7646,5.7626,5.7771,5.7773,5.7815,5.7837,5.7885,5.7931,5.795,0,0,5.7511,5.7502,5.7547,5.7515,5.7606,5.7561,5.7658,5.7686,5.7685,5.7744,5.7748,5.7821,5.784,5.7888,5.8052,5.8067,0,0,0,5.7577,5.761,5.7633,5.7671,5.7697,5.7721,5.7735,5.7747,5.7798,5.7717,5.7849,5.7861,5.7889,5.7911,5.7924,5.7949,5.7783,5.7783,5.7782,5.7707,5.7706,5.7782,5.779,5.7826,5.7842,5.7871,5.7889,5.7872,5.7904,5.7922,5.8022,5.8048,5.8058,5.8084,5.7944,5.7945,5.7945,5.7945,5.784,5.7888,5.7869,5.7938,5.7935,5.7991,5.801,5.7997,5.8049,5.8007,5.8032,5.7989,5.8075,5.8097,5.7949,5.7948,5.7947,5.7947,5.7947,5.7927,5.795,5.7965,5.8021,5.8065,5.8068,5.8121,5.8115,5.8109,5.8133,5.8154,5.8153,5.8153,5.8143,5.8144,5.8144,5.8144,5.8145,5.8145,5.8012,5.8027,5.8074,5.811,5.8136,5.8168,5.8187,5.8211,5.8236,5.8227,5.8227,5.821,5.8083,5.8053,5.815,5.8149,5.8149,5.8148,5.8148,5.8151,5.812,5.8191,5.8217,5.8261,5.8307,5.8299,5.835,5.8368,5.8395,5.8373,5.8279,5.8269,5.8258,5.8233,5.8372,5.8372,5.8372,5.8372,5.8226,5.8221,5.8296,5.8338,5.8378,5.838,5.8462,5.8478,5.8489,5.8501,5.8479,5.8445,5.8435,5.843,5.8416,5.8393,5.8569,5.8569,5.8569,5.8313,5.8312,5.8384,5.8397,5.8432,5.8462,5.854,5.8589,5.8594,5.8577,5.8511,5.8502,5.8447,5.8428,5.8411,5.8389,5.8346,0,0]}]]